"Sample Date","Sample Time","Sample Value","Units","Flow Rate","Sample Interval","Number Channels","Micron Size 0","Counts/Channel 0","Micron Size 1","Counts/Channel 1","Micron Size 2","Counts/Channel 2","Micron Size 3","Counts/Channel 3","Micron Size 4","Counts/Channel 4","Micron Size 5","Counts/Channel 5","Micron Size 6","Counts/Channel 6","Micron Size 7","Counts/Channel 7","Micron Size 8","Counts/Channel 8","Micron Size 9","Counts/Channel 9","Micron Size 10","Counts/Channel 10","Micron Size 11","Counts/Channel 11","Micron Size 12","Counts/Channel 12","Micron Size 13","Counts/Channel 13","Micron Size 14","Counts/Channel 14","Micron Size 15","Counts/Channel 15","Micron Size 16","Counts/Channel 16","Micron Size 17","Counts/Channel 17","Micron Size 18","Counts/Channel 18","Micron Size 19","Counts/Channel 19","Micron Size 20","Counts/Channel 20","Micron Size 21","Counts/Channel 21","Micron Size 22","Counts/Channel 22","Micron Size 23","Counts/Channel 23","Micron Size 24","Counts/Channel 24","Micron Size 25","Counts/Channel 25","Micron Size 26","Counts/Channel 26","Micron Size 27","Counts/Channel 27","Micron Size 28","Counts/Channel 28","Micron Size 29","Counts/Channel 29","Micron Size 30","Counts/Channel 30","Micron Size 31","Counts/Channel 31"
"04/04/08","09:00:04",15379.000,"cc",28275.654,6.00,6,0.100,9698.000,0.200,1925.000,0.300,1540.000,0.500,1670.000,1.000,546.000,5.000,0
"04/04/08","09:00:10",15119.000,"cc",28316.647,6.00,6,0.100,9472.000,0.200,1923.000,0.300,1565.000,0.500,1620.000,1.000,539.000,5.000,0
"04/04/08","09:00:16",15253.000,"cc",28264.775,6.00,6,0.100,9622.000,0.200,1949.000,0.300,1507.000,0.500,1617.000,1.000,558.000,5.000,0
"04/04/08","09:00:22",15203.000,"cc",28299.695,6.00,6,0.100,9548.000,0.200,1834.000,0.300,1606.000,0.500,1647.000,1.000,568.000,5.000,0
"04/04/08","09:00:28",15460.000,"cc",28260.115,6.00,6,0.100,9755.000,0.200,1867.000,0.300,1577.000,0.500,1710.000,1.000,551.000,5.000,0
"04/04/08","09:00:34",15390.000,"cc",28446.246,6.00,6,0.100,9546.000,0.200,1922.000,0.300,1591.000,0.500,1729.000,1.000,602.000,5.000,0
"04/04/08","09:00:40",15053.000,"cc",28334.684,6.00,6,0.100,9450.000,0.200,1890.000,0.300,1522.000,0.500,1639.000,1.000,552.000,5.000,0
"04/04/08","09:00:46",15270.000,"cc",28315.088,6.00,6,0.100,9730.000,0.200,1821.000,0.300,1464.000,0.500,1687.000,1.000,568.000,5.000,0
"04/04/08","09:00:52",14955.000,"cc",28282.672,6.00,6,0.100,9427.000,0.200,1924.000,0.300,1548.000,0.500,1544.000,1.000,512.000,5.000,0
"04/04/08","09:00:58",14431.000,"cc",28309.975,6.00,6,0.100,9292.000,0.200,1752.000,0.300,1382.000,0.500,1474.000,1.000,531.000,5.000,0
"04/04/08","09:01:04",14554.000,"cc",28209.783,6.00,6,0.100,9380.000,0.200,1772.000,0.300,1400.000,0.500,1497.000,1.000,505.000,5.000,0
"04/04/08","09:01:10",14709.000,"cc",28388.211,6.00,6,0.100,9340.000,0.200,1795.000,0.300,1488.000,0.500,1594.000,1.000,492.000,5.000,0
"04/04/08","09:01:16",15278.000,"cc",28319.647,6.00,6,0.100,9720.000,0.200,1876.000,0.300,1483.000,0.500,1681.000,1.000,518.000,5.000,0
"04/04/08","09:01:22",14786.000,"cc",28348.639,6.00,6,0.100,9464.000,0.200,1811.000,0.300,1424.000,0.500,1584.000,1.000,503.000,5.000,0
"04/04/08","09:01:28",14983.000,"cc",28284.111,6.00,6,0.100,9603.000,0.200,1838.000,0.300,1468.000,0.500,1522.000,1.000,552.000,5.000,0
"04/04/08","09:01:34",15435.000,"cc",28368.053,6.00,6,0.100,9859.000,0.200,1946.000,0.300,1416.000,0.500,1654.000,1.000,560.000,5.000,0
"04/04/08","09:01:40",14919.000,"cc",28272.408,6.00,6,0.100,9482.000,0.200,1826.000,0.300,1472.000,0.500,1618.000,1.000,521.000,5.000,0
"04/04/08","09:01:46",15020.000,"cc",28389.098,6.00,6,0.100,9475.000,0.200,1891.000,0.300,1484.000,0.500,1640.000,1.000,530.000,5.000,0
"04/04/08","09:01:52",14768.000,"cc",28344.898,6.00,6,0.100,9426.000,0.200,1804.000,0.300,1451.000,0.500,1538.000,1.000,549.000,5.000,0
"04/04/08","09:01:58",14996.000,"cc",28325.469,6.00,6,0.100,9669.000,0.200,1816.000,0.300,1416.000,0.500,1548.000,1.000,547.000,5.000,0
"04/04/08","09:02:04",14589.000,"cc",28240.420,6.00,6,0.100,9356.000,0.200,1776.000,0.300,1478.000,0.500,1462.000,1.000,517.000,5.000,0
"04/04/08","09:02:10",14845.000,"cc",28344.438,6.00,6,0.100,9532.000,0.200,1777.000,0.300,1489.000,0.500,1562.000,1.000,485.000,5.000,0
"04/04/08","09:02:16",14835.000,"cc",28244.877,6.00,6,0.100,9554.000,0.200,1779.000,0.300,1420.000,0.500,1567.000,1.000,515.000,5.000,0
"04/04/08","09:02:22",15035.000,"cc",28384.619,6.00,6,0.100,9532.000,0.200,1830.000,0.300,1510.000,0.500,1617.000,1.000,546.000,5.000,0
"04/04/08","09:02:28",14493.000,"cc",28248.504,6.00,6,0.100,9495.000,0.200,1729.000,0.300,1358.000,0.500,1394.000,1.000,517.000,5.000,0
"04/04/08","09:02:34",14819.000,"cc",28418.627,6.00,6,0.100,9498.000,0.200,1775.000,0.300,1470.000,0.500,1546.000,1.000,530.000,5.000,0
"04/04/08","09:02:40",14601.000,"cc",28360.707,6.00,6,0.100,9409.000,0.200,1762.000,0.300,1383.000,0.500,1507.000,1.000,540.000,5.000,0
"04/04/08","09:02:46",15101.000,"cc",28319.342,6.00,6,0.100,9705.000,0.200,1797.000,0.300,1429.000,0.500,1630.000,1.000,540.000,5.000,0
"04/04/08","09:02:52",14951.000,"cc",28295.221,6.00,6,0.100,9544.000,0.200,1840.000,0.300,1447.000,0.500,1582.000,1.000,538.000,5.000,0
"04/04/08","09:02:58",15301.000,"cc",28263.486,6.00,6,0.100,9782.000,0.200,1843.000,0.300,1504.000,0.500,1635.000,1.000,537.000,5.000,0
"04/04/08","09:03:04",15363.000,"cc",28340.557,6.00,6,0.100,9746.000,0.200,1857.000,0.300,1541.000,0.500,1662.000,1.000,557.000,5.000,0
"04/04/08","09:03:10",15042.000,"cc",28294.557,6.00,6,0.100,9652.000,0.200,1816.000,0.300,1451.000,0.500,1582.000,1.000,541.000,5.000,0
"04/04/08","09:03:16",15171.000,"cc",28366.680,6.00,6,0.100,9781.000,0.200,1813.000,0.300,1479.000,0.500,1558.000,1.000,540.000,5.000,0
"04/04/08","09:03:22",14857.000,"cc",28359.770,6.00,6,0.100,9721.000,0.200,1711.000,0.300,1347.000,0.500,1553.000,1.000,525.000,5.000,0
"04/04/08","09:03:28",14773.000,"cc",28239.565,6.00,6,0.100,9519.000,0.200,1768.000,0.300,1448.000,0.500,1491.000,1.000,547.000,5.000,0
"04/04/08","09:03:34",14943.000,"cc",28437.369,6.00,6,0.100,9587.000,0.200,1802.000,0.300,1453.000,0.500,1577.000,1.000,524.000,5.000,0
"04/04/08","09:03:40",14613.000,"cc",28283.748,6.00,6,0.100,9362.000,0.200,1827.000,0.300,1361.000,0.500,1531.000,1.000,532.000,5.000,0
"04/04/08","09:03:46",15035.000,"cc",28269.502,6.00,6,0.100,9696.000,0.200,1838.000,0.300,1391.000,0.500,1552.000,1.000,558.000,5.000,0
"04/04/08","09:03:52",15195.000,"cc",28282.479,6.00,6,0.100,9748.000,0.200,1897.000,0.300,1481.000,0.500,1538.000,1.000,531.000,5.000,0
"04/04/08","09:03:58",15287.000,"cc",28331.100,6.00,6,0.100,9659.000,0.200,1934.000,0.300,1527.000,0.500,1602.000,1.000,565.000,5.000,0
"04/04/08","09:04:04",15063.000,"cc",28311.303,6.00,6,0.100,9614.000,0.200,1810.000,0.300,1466.000,0.500,1639.000,1.000,534.000,5.000,0
"04/04/08","09:04:10",15046.000,"cc",28343.318,6.00,6,0.100,9699.000,0.200,1817.000,0.300,1455.000,0.500,1557.000,1.000,518.000,5.000,0
"04/04/08","09:04:16",14650.000,"cc",28267.838,6.00,6,0.100,9469.000,0.200,1733.000,0.300,1446.000,0.500,1462.000,1.000,540.000,5.000,0
"04/04/08","09:04:22",14952.000,"cc",28283.563,6.00,6,0.100,9793.000,0.200,1737.000,0.300,1378.000,0.500,1537.000,1.000,507.000,5.000,0
"04/04/08","09:04:28",14896.000,"cc",28311.543,6.00,6,0.100,9610.000,0.200,1771.000,0.300,1499.000,0.500,1503.000,1.000,513.000,5.000,0
"04/04/08","09:04:34",15287.000,"cc",28314.061,6.00,6,0.100,9891.000,0.200,1858.000,0.300,1470.000,0.500,1566.000,1.000,502.000,5.000,0
"04/04/08","09:04:40",15338.000,"cc",28368.357,6.00,6,0.100,9806.000,0.200,1850.000,0.300,1497.000,0.500,1614.000,1.000,571.000,5.000,0
"04/04/08","09:04:46",15528.000,"cc",28340.557,6.00,6,0.100,9969.000,0.200,1916.000,0.300,1481.000,0.500,1646.000,1.000,516.000,5.000,0
"04/04/08","09:04:52",15016.000,"cc",28318.979,6.00,6,0.100,9637.000,0.200,1750.000,0.300,1478.000,0.500,1596.000,1.000,555.000,5.000,0
"04/04/08","09:04:58",14863.000,"cc",28374.213,6.00,6,0.100,9647.000,0.200,1761.000,0.300,1446.000,0.500,1511.000,1.000,498.000,5.000,0
"04/04/08","09:05:04",14752.000,"cc",28351.598,6.00,6,0.100,9574.000,0.200,1776.000,0.300,1422.000,0.500,1515.000,1.000,465.000,5.000,0
"04/04/08","09:05:10",15030.000,"cc",28325.600,6.00,6,0.100,9689.000,0.200,1842.000,0.300,1386.000,0.500,1592.000,1.000,521.000,5.000,0
"04/04/08","09:05:16",14883.000,"cc",28306.285,6.00,6,0.100,9678.000,0.200,1790.000,0.300,1370.000,0.500,1569.000,1.000,476.000,5.000,0
"04/04/08","09:05:22",14888.000,"cc",28385.488,6.00,6,0.100,9647.000,0.200,1784.000,0.300,1415.000,0.500,1530.000,1.000,512.000,5.000,0
"04/04/08","09:05:28",14705.000,"cc",28208.553,6.00,6,0.100,9412.000,0.200,1816.000,0.300,1389.000,0.500,1564.000,1.000,524.000,5.000,0
"04/04/08","09:05:34",14976.000,"cc",28331.504,6.00,6,0.100,9648.000,0.200,1798.000,0.300,1475.000,0.500,1556.000,1.000,499.000,5.000,0
"04/04/08","09:05:40",15316.000,"cc",28253.670,6.00,6,0.100,9903.000,0.200,1746.000,0.300,1529.000,0.500,1603.000,1.000,535.000,5.000,0
"04/04/08","09:05:46",15163.000,"cc",28408.227,6.00,6,0.100,9852.000,0.200,1831.000,0.300,1428.000,0.500,1542.000,1.000,510.000,5.000,0
"04/04/08","09:05:52",14884.000,"cc",28293.961,6.00,6,0.100,9575.000,0.200,1816.000,0.300,1432.000,0.500,1558.000,1.000,503.000,5.000,0
"04/04/08","09:05:58",15252.000,"cc",28247.049,6.00,6,0.100,9883.000,0.200,1848.000,0.300,1449.000,0.500,1553.000,1.000,519.000,5.000,0
"04/04/08","09:06:04",15281.000,"cc",28386.600,6.00,6,0.100,9750.000,0.200,1819.000,0.300,1509.000,0.500,1613.000,1.000,590.000,5.000,0
"04/04/08","09:06:10",14903.000,"cc",28346.514,6.00,6,0.100,9520.000,0.200,1800.000,0.300,1450.000,0.500,1595.000,1.000,538.000,5.000,0
"04/04/08","09:06:16",15293.000,"cc",28258.885,6.00,6,0.100,9942.000,0.200,1817.000,0.300,1451.000,0.500,1543.000,1.000,540.000,5.000,0
"04/04/08","09:06:22",15169.000,"cc",28208.115,6.00,6,0.100,9837.000,0.200,1869.000,0.300,1411.000,0.500,1528.000,1.000,524.000,5.000,0
"04/04/08","09:06:28",15354.000,"cc",28326.598,6.00,6,0.100,9845.000,0.200,1801.000,0.300,1549.000,0.500,1629.000,1.000,530.000,5.000,0
"04/04/08","09:06:34",15229.000,"cc",28339.854,6.00,6,0.100,9694.000,0.200,1832.000,0.300,1551.000,0.500,1586.000,1.000,566.000,5.000,0
"04/04/08","09:06:40",15587.000,"cc",28358.377,6.00,6,0.100,9958.000,0.200,1857.000,0.300,1518.000,0.500,1700.000,1.000,554.000,5.000,0
"04/04/08","09:06:46",15072.000,"cc",28301.231,6.00,6,0.100,9698.000,0.200,1785.000,0.300,1508.000,0.500,1603.000,1.000,478.000,5.000,0
"04/04/08","09:06:52",15029.000,"cc",28332.731,6.00,6,0.100,9710.000,0.200,1800.000,0.300,1462.000,0.500,1568.000,1.000,489.000,5.000,0
"04/04/08","09:06:58",15321.000,"cc",28276.785,6.00,6,0.100,9933.000,0.200,1779.000,0.300,1478.000,0.500,1563.000,1.000,568.000,5.000,0
"04/04/08","09:07:04",15007.000,"cc",28488.180,6.00,6,0.100,9854.000,0.200,1847.000,0.300,1374.000,0.500,1431.000,1.000,501.000,5.000,0
"04/04/08","09:07:10",15071.000,"cc",28311.180,6.00,6,0.100,9800.000,0.200,1745.000,0.300,1469.000,0.500,1542.000,1.000,515.000,5.000,0
"04/04/08","09:07:16",15158.000,"cc",28371.393,6.00,6,0.100,9761.000,0.200,1743.000,0.300,1446.000,0.500,1641.000,1.000,567.000,5.000,0
"04/04/08","09:07:22",14726.000,"cc",28304.207,6.00,6,0.100,9725.000,0.200,1694.000,0.300,1321.000,0.500,1479.000,1.000,507.000,5.000,0
"04/04/08","09:07:28",14750.000,"cc",28331.572,6.00,6,0.100,9585.000,0.200,1713.000,0.300,1452.000,0.500,1503.000,1.000,497.000,5.000,0
"04/04/08","09:07:34",14837.000,"cc",28265.395,6.00,6,0.100,9624.000,0.200,1744.000,0.300,1375.000,0.500,1552.000,1.000,542.000,5.000,0
"04/04/08","09:07:40",14668.000,"cc",28251.580,6.00,6,0.100,9535.000,0.200,1736.000,0.300,1428.000,0.500,1461.000,1.000,508.000,5.000,0
"04/04/08","09:07:46",15072.000,"cc",28433.975,6.00,6,0.100,9870.000,0.200,1705.000,0.300,1391.000,0.500,1533.000,1.000,573.000,5.000,0
"04/04/08","09:07:52",14977.000,"cc",28221.342,6.00,6,0.100,9772.000,0.200,1751.000,0.300,1378.000,0.500,1485.000,1.000,591.000,5.000,0
"04/04/08","09:07:58",14778.000,"cc",28360.279,6.00,6,0.100,9804.000,0.200,1696.000,0.300,1315.000,0.500,1472.000,1.000,491.000,5.000,0
"04/04/08","09:08:04",15075.000,"cc",28360.254,6.00,6,0.100,9872.000,0.200,1740.000,0.300,1441.000,0.500,1502.000,1.000,520.000,5.000,0
"04/04/08","09:08:10",14996.000,"cc",28129.148,6.00,6,0.100,9799.000,0.200,1750.000,0.300,1394.000,0.500,1491.000,1.000,562.000,5.000,0
"04/04/08","09:08:16",15126.000,"cc",28243.406,6.00,6,0.100,9941.000,0.200,1796.000,0.300,1376.000,0.500,1517.000,1.000,496.000,5.000,0
"04/04/08","09:08:22",15582.000,"cc",28358.895,6.00,6,0.100,10228.000,0.200,1783.000,0.300,1451.000,0.500,1564.000,1.000,556.000,5.000,0
"04/04/08","09:08:28",15161.000,"cc",28431.035,6.00,6,0.100,9837.000,0.200,1798.000,0.300,1459.000,0.500,1553.000,1.000,514.000,5.000,0
"04/04/08","09:08:34",15255.000,"cc",28308.272,6.00,6,0.100,9934.000,0.200,1806.000,0.300,1415.000,0.500,1550.000,1.000,550.000,5.000,0
"04/04/08","09:08:40",15518.000,"cc",28308.803,6.00,6,0.100,10044.000,0.200,1856.000,0.300,1496.000,0.500,1590.000,1.000,532.000,5.000,0
"04/04/08","09:08:46",15098.000,"cc",28333.734,6.00,6,0.100,9876.000,0.200,1793.000,0.300,1406.000,0.500,1489.000,1.000,534.000,5.000,0
"04/04/08","09:08:52",15641.000,"cc",28312.984,6.00,6,0.100,10204.000,0.200,1801.000,0.300,1498.000,0.500,1611.000,1.000,527.000,5.000,0
"04/04/08","09:08:58",15213.000,"cc",28440.473,6.00,6,0.100,9981.000,0.200,1736.000,0.300,1408.000,0.500,1601.000,1.000,487.000,5.000,0
"04/04/08","09:09:04",15123.000,"cc",28347.311,6.00,6,0.100,10039.000,0.200,1696.000,0.300,1394.000,0.500,1489.000,1.000,505.000,5.000,0
"04/04/08","09:09:10",15219.000,"cc",28285.787,6.00,6,0.100,10281.000,0.200,1726.000,0.300,1335.000,0.500,1395.000,1.000,482.000,5.000,0
"04/04/08","09:09:16",15352.000,"cc",28317.617,6.00,6,0.100,10265.000,0.200,1747.000,0.300,1370.000,0.500,1459.000,1.000,511.000,5.000,0
"04/04/08","09:09:22",15364.000,"cc",28353.740,6.00,6,0.100,10145.000,0.200,1747.000,0.300,1377.000,0.500,1554.000,1.000,541.000,5.000,0
"04/04/08","09:09:28",15266.000,"cc",28288.219,6.00,6,0.100,10223.000,0.200,1675.000,0.300,1359.000,0.500,1488.000,1.000,521.000,5.000,0
"04/04/08","09:09:34",15237.000,"cc",28370.332,6.00,6,0.100,10169.000,0.200,1676.000,0.300,1393.000,0.500,1513.000,1.000,486.000,5.000,0
"04/04/08","09:09:40",15278.000,"cc",28354.020,6.00,6,0.100,10102.000,0.200,1800.000,0.300,1394.000,0.500,1475.000,1.000,507.000,5.000,0
"04/04/08","09:09:46",15400.000,"cc",28205.762,6.00,6,0.100,10283.000,0.200,1738.000,0.300,1377.000,0.500,1467.000,1.000,535.000,5.000,0
"04/04/08","09:09:52",15420.000,"cc",28379.908,6.00,6,0.100,10209.000,0.200,1726.000,0.300,1445.000,0.500,1523.000,1.000,517.000,5.000,0
"04/04/08","09:09:58",15128.000,"cc",28266.606,6.00,6,0.100,10086.000,0.200,1726.000,0.300,1348.000,0.500,1479.000,1.000,489.000,5.000,0
"04/04/08","09:10:04",15448.000,"cc",28376.236,6.00,6,0.100,10344.000,0.200,1749.000,0.300,1374.000,0.500,1464.000,1.000,517.000,5.000,0
"04/04/08","09:10:10",15253.000,"cc",28222.807,6.00,6,0.100,10126.000,0.200,1775.000,0.300,1363.000,0.500,1469.000,1.000,520.000,5.000,0
"04/04/08","09:10:16",15511.000,"cc",28141.953,6.00,6,0.100,10357.000,0.200,1783.000,0.300,1386.000,0.500,1471.000,1.000,514.000,5.000,0
"04/04/08","09:10:22",15554.000,"cc",28291.982,6.00,6,0.100,10488.000,0.200,1770.000,0.300,1315.000,0.500,1483.000,1.000,498.000,5.000,0
"04/04/08","09:10:28",15469.000,"cc",28397.764,6.00,6,0.100,10691.000,0.200,1634.000,0.300,1285.000,0.500,1388.000,1.000,471.000,5.000,0
"04/04/08","09:10:34",15434.000,"cc",28384.246,6.00,6,0.100,10443.000,0.200,1765.000,0.300,1332.000,0.500,1402.000,1.000,492.000,5.000,0
"04/04/08","09:10:40",15494.000,"cc",28388.123,6.00,6,0.100,10448.000,0.200,1691.000,0.300,1349.000,0.500,1490.000,1.000,516.000,5.000,0
"04/04/08","09:10:46",15522.000,"cc",28248.258,6.00,6,0.100,10455.000,0.200,1767.000,0.300,1362.000,0.500,1469.000,1.000,469.000,5.000,0
"04/04/08","09:10:52",15450.000,"cc",28294.400,6.00,6,0.100,10548.000,0.200,1642.000,0.300,1313.000,0.500,1485.000,1.000,462.000,5.000,0
"04/04/08","09:10:58",15872.000,"cc",28308.229,6.00,6,0.100,10665.000,0.200,1798.000,0.300,1379.000,0.500,1524.000,1.000,506.000,5.000,0
"04/04/08","09:11:04",15567.000,"cc",28293.447,6.00,6,0.100,10250.000,0.200,1824.000,0.300,1429.000,0.500,1525.000,1.000,539.000,5.000,0
"04/04/08","09:11:10",15627.000,"cc",28326.533,6.00,6,0.100,10546.000,0.200,1756.000,0.300,1317.000,0.500,1528.000,1.000,480.000,5.000,0
"04/04/08","09:11:16",15349.000,"cc",28335.174,6.00,6,0.100,10315.000,0.200,1738.000,0.300,1362.000,0.500,1434.000,1.000,500.000,5.000,0
"04/04/08","09:11:22",15081.000,"cc",28390.984,6.00,6,0.100,10087.000,0.200,1731.000,0.300,1375.000,0.500,1372.000,1.000,516.000,5.000,0
"04/04/08","09:11:28",15345.000,"cc",28382.635,6.00,6,0.100,10324.000,0.200,1702.000,0.300,1333.000,0.500,1455.000,1.000,531.000,5.000,0
"04/04/08","09:11:34",15465.000,"cc",28249.281,6.00,6,0.100,10263.000,0.200,1754.000,0.300,1382.000,0.500,1535.000,1.000,531.000,5.000,0
"04/04/08","09:11:40",15347.000,"cc",28261.754,6.00,6,0.100,10177.000,0.200,1772.000,0.300,1348.000,0.500,1516.000,1.000,534.000,5.000,0
"04/04/08","09:11:46",15426.000,"cc",28370.606,6.00,6,0.100,10316.000,0.200,1718.000,0.300,1352.000,0.500,1457.000,1.000,583.000,5.000,0
"04/04/08","09:11:52",15666.000,"cc",28434.672,6.00,6,0.100,10428.000,0.200,1810.000,0.300,1410.000,0.500,1484.000,1.000,534.000,5.000,0
"04/04/08","09:11:58",15641.000,"cc",28305.977,6.00,6,0.100,10160.000,0.200,1875.000,0.300,1457.000,0.500,1607.000,1.000,542.000,5.000,0
"04/04/08","09:12:04",15515.000,"cc",28265.488,6.00,6,0.100,10178.000,0.200,1727.000,0.300,1424.000,0.500,1609.000,1.000,577.000,5.000,0
"04/04/08","09:12:10",15303.000,"cc",28445.604,6.00,6,0.100,10262.000,0.200,1711.000,0.300,1349.000,0.500,1456.000,1.000,525.000,5.000,0
"04/04/08","09:12:16",14986.000,"cc",28301.949,6.00,6,0.100,10118.000,0.200,1683.000,0.300,1317.000,0.500,1388.000,1.000,480.000,5.000,0
"04/04/08","09:12:22",15278.000,"cc",28356.443,6.00,6,0.100,10142.000,0.200,1709.000,0.300,1399.000,0.500,1549.000,1.000,479.000,5.000,0
"04/04/08","09:12:28",15604.000,"cc",28328.357,6.00,6,0.100,10349.000,0.200,1752.000,0.300,1413.000,0.500,1560.000,1.000,530.000,5.000,0
"04/04/08","09:12:34",15521.000,"cc",28356.031,6.00,6,0.100,10413.000,0.200,1788.000,0.300,1348.000,0.500,1473.000,1.000,499.000,5.000,0
"04/04/08","09:12:40",15612.000,"cc",28308.209,6.00,6,0.100,10440.000,0.200,1777.000,0.300,1350.000,0.500,1502.000,1.000,543.000,5.000,0
"04/04/08","09:12:46",15796.000,"cc",28358.125,6.00,6,0.100,10689.000,0.200,1718.000,0.300,1362.000,0.500,1493.000,1.000,534.000,5.000,0
"04/04/08","09:12:52",15635.000,"cc",28314.752,6.00,6,0.100,10525.000,0.200,1769.000,0.300,1383.000,0.500,1465.000,1.000,493.000,5.000,0
"04/04/08","09:12:58",15468.000,"cc",28448.738,6.00,6,0.100,10350.000,0.200,1744.000,0.300,1340.000,0.500,1489.000,1.000,545.000,5.000,0
"04/04/08","09:13:04",15686.000,"cc",28208.680,6.00,6,0.100,10410.000,0.200,1802.000,0.300,1378.000,0.500,1581.000,1.000,515.000,5.000,0
"04/04/08","09:13:10",15453.000,"cc",28352.440,6.00,6,0.100,10455.000,0.200,1678.000,0.300,1334.000,0.500,1482.000,1.000,504.000,5.000,0
"04/04/08","09:13:16",15848.000,"cc",28326.166,6.00,6,0.100,10584.000,0.200,1770.000,0.300,1440.000,0.500,1542.000,1.000,512.000,5.000,0
"04/04/08","09:13:22",15643.000,"cc",28369.234,6.00,6,0.100,10487.000,0.200,1749.000,0.300,1384.000,0.500,1495.000,1.000,528.000,5.000,0
"04/04/08","09:13:28",15558.000,"cc",28392.016,6.00,6,0.100,10491.000,0.200,1755.000,0.300,1328.000,0.500,1518.000,1.000,466.000,5.000,0
"04/04/08","09:13:34",15938.000,"cc",28287.674,6.00,6,0.100,10672.000,0.200,1846.000,0.300,1403.000,0.500,1529.000,1.000,488.000,5.000,0
"04/04/08","09:13:40",15895.000,"cc",28390.076,6.00,6,0.100,10538.000,0.200,1810.000,0.300,1422.000,0.500,1591.000,1.000,534.000,5.000,0
"04/04/08","09:13:46",15872.000,"cc",28389.203,6.00,6,0.100,10618.000,0.200,1778.000,0.300,1363.000,0.500,1546.000,1.000,567.000,5.000,0
"04/04/08","09:13:52",15352.000,"cc",28383.553,6.00,6,0.100,10263.000,0.200,1761.000,0.300,1363.000,0.500,1449.000,1.000,516.000,5.000,0
"04/04/08","09:13:58",15984.000,"cc",28225.770,6.00,6,0.100,10635.000,0.200,1903.000,0.300,1397.000,0.500,1524.000,1.000,525.000,5.000,0
"04/04/08","09:14:04",16039.000,"cc",28305.145,6.00,6,0.100,10510.000,0.200,1797.000,0.300,1556.000,0.500,1638.000,1.000,538.000,5.000,0
"04/04/08","09:14:10",15552.000,"cc",28351.287,6.00,6,0.100,10322.000,0.200,1792.000,0.300,1405.000,0.500,1554.000,1.000,479.000,5.000,0
"04/04/08","09:14:16",15511.000,"cc",28258.190,6.00,6,0.100,10345.000,0.200,1747.000,0.300,1384.000,0.500,1487.000,1.000,548.000,5.000,0
"04/04/08","09:14:22",15670.000,"cc",28244.332,6.00,6,0.100,10328.000,0.200,1835.000,0.300,1431.000,0.500,1532.000,1.000,544.000,5.000,0
"04/04/08","09:14:28",15573.000,"cc",28264.033,6.00,6,0.100,10400.000,0.200,1788.000,0.300,1354.000,0.500,1485.000,1.000,546.000,5.000,0
"04/04/08","09:14:34",16257.000,"cc",28128.738,6.00,6,0.100,10637.000,0.200,1949.000,0.300,1464.000,0.500,1635.000,1.000,572.000,5.000,0
"04/04/08","09:14:40",16409.000,"cc",28225.106,6.00,6,0.100,10643.000,0.200,1972.000,0.300,1550.000,0.500,1673.000,1.000,571.000,5.000,0
"04/04/08","09:14:46",16298.000,"cc",28294.315,6.00,6,0.100,10461.000,0.200,1842.000,0.300,1584.000,0.500,1784.000,1.000,627.000,5.000,0
"04/04/08","09:14:52",16277.000,"cc",28045.139,6.00,6,0.100,10623.000,0.200,1819.000,0.300,1519.000,0.500,1662.000,1.000,654.000,5.000,0
"04/04/08","09:14:58",16532.000,"cc",28331.443,6.00,6,0.100,10693.000,0.200,2001.000,0.300,1477.000,0.500,1736.000,1.000,625.000,5.000,0
"04/04/08","09:15:04",16178.000,"cc",28305.410,6.00,6,0.100,10636.000,0.200,1818.000,0.300,1498.000,0.500,1672.000,1.000,554.000,5.000,0
"04/04/08","09:15:10",15974.000,"cc",28229.750,6.00,6,0.100,10643.000,0.200,1729.000,0.300,1452.000,0.500,1597.000,1.000,553.000,5.000,0
"04/04/08","09:15:16",17117.000,"cc",28246.576,6.00,6,0.100,11078.000,0.200,2077.000,0.300,1648.000,0.500,1662.000,1.000,652.000,5.000,0
"04/04/08","09:15:22",23619.000,"cc",28304.457,6.00,6,0.100,14506.000,0.200,3466.000,0.300,2445.000,0.500,2383.000,1.000,819.000,5.000,0
"04/04/08","09:15:28",35494.000,"cc",28306.986,6.00,6,0.100,28202.000,0.200,3549.000,0.300,1552.000,0.500,1699.000,1.000,492.000,5.000,0
"04/04/08","09:15:34",57628.000,"cc",28305.445,6.00,6,0.100,48219.000,0.200,5423.000,0.300,1734.000,0.500,1709.000,1.000,543.000,5.000,0
"04/04/08","09:15:40",102669.000,"cc",28291.356,6.00,6,0.100,88207.000,0.200,9745.000,0.300,2172.000,0.500,1929.000,1.000,616.000,5.000,0
"04/04/08","09:15:46",51474.000,"cc",28280.350,6.00,6,0.100,42874.000,0.200,4945.000,0.300,1575.000,0.500,1576.000,1.000,504.000,5.000,0
"04/04/08","09:15:52",66819.000,"cc",28352.565,6.00,6,0.100,57255.000,0.200,5993.000,0.300,1587.000,0.500,1479.000,1.000,505.000,5.000,0
"04/04/08","09:15:58",98821.000,"cc",28353.648,6.00,6,0.100,86077.000,0.200,8905.000,0.300,1796.000,0.500,1592.000,1.000,451.000,5.000,0
"04/04/08","09:16:04",110590.000,"cc",28280.834,6.00,6,0.100,96893.000,0.200,9850.000,0.300,1878.000,0.500,1512.000,1.000,457.000,5.000,0
"04/04/08","09:16:10",82953.000,"cc",28278.910,6.00,6,0.100,71829.000,0.200,7394.000,0.300,1688.000,0.500,1575.000,1.000,467.000,5.000,0
"04/04/08","09:16:16",180328.000,"cc",28376.947,6.00,6,0.100,159226.000,0.200,16924.000,0.300,2113.000,0.500,1528.000,1.000,537.000,5.000,0
"04/04/08","09:16:22",385700.000,"cc",28292.818,6.00,6,0.100,335167.000,0.200,44996.000,0.300,3257.000,0.500,1725.000,1.000,555.000,5.000,0
"04/04/08","09:16:28",341175.000,"cc",28306.738,6.00,6,0.100,298437.000,0.200,37614.000,0.300,2974.000,0.500,1615.000,1.000,535.000,5.000,0